Torna al catalogo

IRIDIUM 167

AttivoComunicazioniPO
NORAD 43931·PAYLOAD·🇺🇸 United States

Lanciato Jan 11, 2019 da Vandenberg Space Force Base

Loading…

Prossimi Passaggi (prossime 24 ore)

TLE

AggiornatoSource: CelesTrak SupGP

Epoca: Sep 14, 2026, 20:37 UTC

1 43931C 19002K   26257.85937500 -.00001060  00000+0 -37903-3 0  2571
2 43931  86.3975 316.1312 0002095  90.8156 176.8306 14.34217825    11

Traccia IRIDIUM 167 in tempo reale con AllMySat

Download on the App Store